This demonstration page uses our WeatherBlox Daily Observations layout. Learn more.

Left ArrowRight Arrow

47.50024, -111.30081

Hourly Observations for January 18, 2018

Temp ( °F °C ) Dew Point ( °F °C ) Humidity (%) Winds ( mph kmh ) Pressure ( in mb ) Visibility ( mi km ) Precip ( " mm )
12:53 am 00:53 Clear 43 6.1 25 -3.9 49 49 SSW 24 39 29.92 1013 10 16 0.00 0.00
1:53 am 01:53 Clear 44 6.7 25 -3.9 47 47 SSW 21 33 29.88 1012 10 16 0.00 0.00
2:53 am 02:53 Clear 43 6.1 25 -3.9 49 49 SSW 23 37 29.87 1012 10 16 0.00 0.00
3:53 am 03:53 Clear 43 6.1 26 -3.3 51 51 SSW 17 28 29.85 1011 10 16 0.00 0.00
4:53 am 04:53 Clear 44 6.7 26 -3.3 49 49 SSW 26 43 29.80 1009 10 16 0.00 0.00
5:53 am 05:53 Clear 45 7.2 26 -3.3 48 48 SSW 25 41 29.78 1008 10 16 0.00 0.00
6:53 am 06:53 Clear 45 7.2 27 -2.8 49 49 SSW 24 39 29.77 1008 10 16 0.00 0.00
7:53 am 07:53 Clear 43 6.1 27 -2.8 53 53 SSW 13 20 29.76 1008 10 16 0.00 0.00
8:53 am 08:53 Sunny 43 6.1 28 -2.2 56 56 SSW 13 20 29.75 1007 10 16 0.00 0.00
9:53 am 09:53 Sunny 45 7.2 30 -1.1 56 56 WSW 9 15 29.73 1007 10 16 0.00 0.00
10:53 am 10:53 Sunny 48 8.9 31 -0.6 52 52 WSW 14 22 29.75 1007 10 16 0.00 0.00
11:53 am 11:53 Sunny 49 9.4 31 -0.6 50 50 W 16 26 29.74 1007 10 16 0.00 0.00
12:53 pm 12:53 Cloudy 46 7.8 34 1.1 63 63 WNW 12 19 29.74 1007 10 16 0.00 0.00
1:53 pm 13:53 Cloudy 44 6.7 33 0.6 65 65 W 14 22 29.73 1007 10 16 0.00 0.00
2:53 pm 14:53 Cloudy 44 6.7 34 1.1 68 68 WSW 13 20 29.72 1007 10 16 0.00 0.00
3:53 pm 15:53 Cloudy 43 6.1 32 0 65 65 SW 12 19 29.74 1007 10 16 0.00 0.00
4:53 pm 16:53 Cloudy 43 6.1 31 -0.6 63 63 SSW 14 22 29.73 1007 10 16 0.00 0.00
5:53 pm 17:53 Cloudy 42 5.6 32 0 68 68 SSW 15 24 29.72 1007 10 16 0.00 0.00
6:53 pm 18:53 Cloudy 40 4.4 32 0 73 73 SSW 13 20 29.73 1007 10 16 0.00 0.00
7:53 pm 19:53 Cloudy 40 4.4 32 0 73 73 SSW 14 22 29.75 1007 10 16 0.00 0.00
8:53 pm 20:53 Cloudy 38 3.3 32 0 79 79 SSW 12 19 29.75 1008 10 16 0.00 0.03
9:53 pm 21:53 Cloudy with Light Rain 37 2.8 33 0.6 86 86 WSW 7 11 29.75 1007 10 16 0.01 0.25
10:25 pm 22:25 Cloudy with Light Rain 37 2.8 33 0.6 86 86 WSW 10 17 29.77 1008 10 16 0.01 0.25
10:38 pm 22:38 Cloudy with Light Rain 37 2.8 33 0.6 86 86 SW 10 17 29.77 1008 10 16 0.01 0.25
10:53 pm 22:53 Cloudy with Light Rain 36 2.2 34 1.1 93 93 SW 9 15 29.75 1008 10 16 0.01 0.25
11:53 pm 23:53 Cloudy 36 2.2 32 0 86 86 S 12 19 29.72 1006 10 16 0.00 0.03

Powered by AerisWeather